Location: Stillwell
(40.4602°N, 82.0928°W)
Time: 20:40:47
(UTC-04:00)

CZ-2C R/B - Pass Details

Date: 25 May 2018
Orbit: 705 x 907 km, 98.2° (Epoch: 16 October)

Event Time Altitude Azimuth Distance (km) Brightness Sun altitude
Exits shadow 23:40:59 60° 153° (SSE) 950 3.1 -23.8°
Maximum altitude 23:42:01 83° 76° (ENE) 850 3.1 -23.9°
Drops below altitude 10° 23:47:39 10° 349° (N) 2,523 6.7 -24.4°
Sets 23:50:06 0° 349° (NNW) 3,489 7.7 -24.6°
